Capri, Italy

11:13 PM CEST on August 22, 2017 (GMT +0200)
Capri

Weather History for LIQC - November, 2012

Change the Weather History Date:

Thursday, November 22, 2012

  Actual Average (LIRN) Record (LIRN)
Temperature  
Mean Temperature 65 °F -  
Max Temperature 70 °F 61 °F 70 °F (2016)
Min Temperature 59 °F 45 °F 33 °F (2004)
Growing Degree Days 15 (Base 50)    
Moisture  
Dew Point 61 °F    
Average Humidity 91    
Maximum Humidity 100    
Minimum Humidity 71    
Precipitation  
Precipitation 0.00 in - - ()
Sea Level Pressure  
Sea Level Pressure 30.10 in    
Wind  
Wind Speed 0 mph ()    
Max Wind Speed 4 mph    
Max Gust Speed -    
Visibility 9.0 miles    
Events      
Averages and records for this station are not official NWS values.
T = Trace of Precipitation, MM = Missing Value Source: Averaged Metar Reports

Daily Weather History Graph

Daily Weather History Graph

Search for Another Location

Airport or City:

Trip Planner

Search our weather history database for the weather conditions in past years. The results will help you decide how hot, cold, wet, or windy it might be!

Date:

Astronomy

Nov. 22, 2012 Rise Set
Actual Time 6:57 AM CET 4:40 PM CET
Civil Twilight 6:28 AM CET 5:10 PM CET
Nautical Twilight 5:54 AM CET 5:43 PM CET
Astronomical Twilight 5:22 AM CET 6:16 PM CET
Moon 1:19 PM CET 12:59 AM CET
Length of Visible Light 10h 42m
Length of Day
9h 42m
Waxing Gibbous, 69% of the Moon is Illuminated
Nov 22
Waxing Gibbous
Nov 28
Full
Dec 6
Last Quarter
Dec 13
New
Dec 20
First Quarter

Hourly Weather History & Observations

Time (CET) Temp. Dew Point Humidity Pressure Visibility Wind Dir Wind Speed Gust Speed Precip Events Conditions
12:55 AM 60.8 °F 59.0 °F 94% 30.04 in - Calm Calm - N/A   Clear
1:00 AM 61 °F 58 °F 87% 30.04 in 12 mi Calm Calm - -  
1:55 AM 60.8 °F 59.0 °F 94% 30.04 in - Calm Calm - N/A   Clear
4:00 AM 61 °F 60 °F 97% 30.07 in 6 mi Calm Calm - -  
5:55 AM 60.8 °F 60.8 °F 100% 30.06 in - Calm Calm - N/A   Clear
6:55 AM 60.8 °F 59.0 °F 94% 30.06 in - Calm Calm - N/A   Clear
7:00 AM 61 °F 60 °F 94% 30.08 in 6 mi Calm Calm - -  
7:55 AM 60.8 °F 59.0 °F 94% 30.09 in - Calm Calm - N/A   Clear
8:55 AM 60.8 °F 59.0 °F 94% 30.09 in - Calm Calm - N/A   Clear
9:55 AM 62.6 °F 59.0 °F 88% 30.12 in - Calm Calm - N/A   Clear
10:00 AM 62 °F 59 °F 88% 30.12 in 12 mi Calm Calm - -   Clear
10:55 AM 64.4 °F 60.8 °F 88% 30.12 in - Calm Calm - N/A   Clear
11:55 AM 66.2 °F 62.6 °F 88% 30.12 in 6.2 mi Calm Calm - N/A   Partly Cloudy
12:55 PM 69.8 °F 62.6 °F 78% 30.12 in - WSW 2.3 mph - N/A   Clear
1:00 PM 70 °F 63 °F 71% 30.12 in 12 mi WSW 2.3 mph - -   Clear
1:55 PM 69.8 °F 62.6 °F 78% 30.12 in - West 3.5 mph - N/A   Clear
2:55 PM 69.8 °F 62.6 °F 78% 30.09 in - WSW 2.3 mph - N/A   Clear
3:55 PM 68.0 °F 62.6 °F 83% 30.09 in - WSW 3.5 mph - N/A   Clear
4:00 PM 68 °F 63 °F 78% 30.11 in 12 mi WSW 3.5 mph - -   Partly Cloudy
4:55 PM 66.2 °F 62.6 °F 88% 30.12 in - Calm Calm - N/A   Clear
5:55 PM 62.6 °F 62.6 °F 100% 30.12 in - Calm Calm - N/A   Clear
6:55 PM 60.8 °F 60.8 °F 100% 30.12 in - Calm Calm - N/A   Clear
7:55 PM 60.8 °F 60.8 °F 100% 30.12 in - Calm Calm - N/A   Clear
8:55 PM 60.8 °F 60.8 °F 100% 30.15 in - Calm Calm - N/A   Clear
9:55 PM 60.8 °F 60.8 °F 100% 30.15 in - Calm Calm - N/A   Clear
10:00 PM 61 °F 61 °F 99% 30.16 in 6 mi Calm Calm - -  
10:55 PM 60.8 °F 60.8 °F 100% 30.15 in - Calm Calm - N/A   Clear
11:55 PM 59.0 °F 59.0 °F 100% 30.15 in - Calm Calm - N/A   Clear